カタログに戻る

STARLINK-37571

運用中通信SSO
NORAD 69043·PAYLOAD·🇺🇸 United States

打ち上げ May 6, 2026 から Vandenberg Space Force Base

Loading…

次のパス (今後24時間)

TLE

最新Source: CelesTrak SupGP

元期: Sep 14, 2026, 21:22 UTC

1 69043C 26101U   26257.89076389  .00039432  00000+0  12250-2 0  2573
2 69043  97.2847 111.4473 0002302  96.7635  88.5449 15.33392341    18

AllMySatでSTARLINK-37571をリアルタイム追跡

Download on the App Store